User: anonymous   Login
Location: Unspecified
(0.0000°N, 0.0000°E)
Time: 15:52:31
(UTC+00:00)
Language:

DODGE - Orbit

View from above orbital plane
View from above orbital plane
View from above satellite
View from above satellite

Ground track
Ground track

The orbit data is extracted from the following two-line orbital elements,

1 02867U 67066F   18203.38640231 -.00000103  00000-0  00000+0 0  9993
2 02867   4.4500 288.5688 0052255 309.7038 130.4328  1.09168118101987
Epoch (UTC): 22 July 2018 09:16:25
Eccentricity: 0.0052255
inclination: 4.4500°
perigee height: 33255 km
apogee height: 33671 km
right ascension of ascending node: 288.5688°
argument of perigee: 309.7038°
revolutions per day: 1.09168118
mean anomaly at epoch: 130.4328°
orbit number at epoch: 10198

The dashed part of the orbit path shows where the satellite is in the earth's shadow,  

DLR